Location: St. Louis
(38.6270°N, 90.1994°W)
Time: 00:24:14
(UTC-06:00)

Vanguard 2 - Pass Details

Date: 30 November 2021
Orbit: 553 x 2936 km, 32.9° (Epoch: 16 January)

Event Time Altitude Azimuth Distance (km) Brightness Sun altitude
Rises 19:15:15 0° 274° (W) 4,489 12.6 -29.8°
Reaches altitude 10° 19:18:04 10° 266° (W) 3,800 12.0 -30.3°
Maximum altitude 19:27:35 39° 202° (SSW) 2,928 10.5 -32.2°
Enters shadow 19:39:00 16° 146° (SSE) 4,936 11.3 -34.4°
Drops below altitude 10° 19:41:33 10° 142° (SE) 5,519 - -34.9°
Sets 19:46:42 0° 136° (SE) 6,699 - -35.9°
